• En España
  • Lista de países
  • Para 7 días
  • Temperatura del agua
  • Mapa Satelital
  • El tiempo en el mapa
  • Informadores
  • user-avatar
    Iniciar sesión

    Tiempo cada hora Annaba

    Hoy, 21 Octubre, Domingo

    Tiempo Temperatura Precipitaciones Viento Presión Humedad
    00:00 +21°C° 0 mm 2 mps 763 mmHg 85%
    01:00 +22°C° 0 mm 1 mps 763 mmHg 84%
    02:00 +22°C° 0 mm 1 mps 762 mmHg 84%
    03:00 +22°C° 0 mm 1 mps 762 mmHg 84%
    04:00 +22°C° 0 mm 1 mps 762 mmHg 83%
    05:00 +22°C° 0 mm 1 mps 762 mmHg 83%
    06:00 +21°C° 0 mm 1 mps 762 mmHg 83%
    07:00 +22°C° 0 mm 1 mps 762 mmHg 82%
    08:00 +23°C° 0 mm 1 mps 762 mmHg 76%
    09:00 +25°C° 0 mm 1 mps 762 mmHg 69%
    10:00 +26°C° 0 mm 1 mps 762 mmHg 63%
    11:00 +27°C° 0 mm 1 mps 762 mmHg 60%
    12:00 +28°C° 0 mm 2 mps 762 mmHg 57%
    13:00 +28°C° 0 mm 2 mps 761 mmHg 55%
    14:00 +28°C° 0 mm 2 mps 761 mmHg 57%
    15:00 +28°C° 0 mm 3 mps 761 mmHg 59%
    16:00 +27°C° 0 mm 3 mps 760 mmHg 62%
    17:00 +26°C° 0 mm 2 mps 760 mmHg 69%
    18:00 +25°C° 0 mm 2 mps 760 mmHg 76%
    19:00 +23°C° 0 mm 1 mps 760 mmHg 84%
    20:00 +23°C° 0 mm 1 mps 761 mmHg 86%
    21:00 +22°C° 0 mm 1 mps 761 mmHg 88%
    22:00 +22°C° 0 mm 1 mps 761 mmHg 90%
    23:00 +22°C° 0 mm 1 mps 761 mmHg 90%

    Mañana, 22 Octubre, Lunes

    Tiempo Temperatura Precipitaciones Viento Presión Humedad
    00:00 +21°C° 0 mm 2 mps 761 mmHg 91%
    01:00 +20°C° 0 mm 2 mps 761 mmHg 91%
    02:00 +20°C° 0 mm 2 mps 761 mmHg 91%
    03:00 +20°C° 0 mm 2 mps 760 mmHg 91%
    04:00 +20°C° 0 mm 2 mps 760 mmHg 91%
    05:00 +20°C° 0.1 mm 3 mps 760 mmHg 90%
    06:00 +20°C° 0.1 mm 3 mps 760 mmHg 90%
    07:00 +19°C° 0.1 mm 3 mps 760 mmHg 90%
    08:00 +21°C° 0.5 mm 4 mps 760 mmHg 84%
    09:00 +22°C° 0.5 mm 4 mps 761 mmHg 77%
    10:00 +23°C° 0.5 mm 4 mps 761 mmHg 71%
    11:00 +23°C° 0.3 mm 4 mps 761 mmHg 69%
    12:00 +25°C° 0.3 mm 5 mps 761 mmHg 68%
    13:00 +25°C° 0.3 mm 5 mps 760 mmHg 67%
    14:00 +25°C° 0.5 mm 5 mps 760 mmHg 65%
    15:00 +24°C° 0.5 mm 6 mps 760 mmHg 62%
    16:00 +23°C° 0.5 mm 6 mps 760 mmHg 60%
    17:00 +22°C° 0.8 mm 6 mps 760 mmHg 67%
    18:00 +21°C° 0.8 mm 5 mps 760 mmHg 73%
    19:00 +20°C° 0.8 mm 5 mps 761 mmHg 80%
    20:00 +20°C° 0.1 mm 5 mps 761 mmHg 78%
    21:00 +20°C° 0.1 mm 5 mps 762 mmHg 77%
    22:00 +20°C° 0.1 mm 5 mps 762 mmHg 76%
    23:00 +19°C° 0 mm 5 mps 762 mmHg 76%

    Pasado mañana, 23 Octubre, Martes

    Tiempo Temperatura Precipitaciones Viento Presión Humedad
    00:00 +17°C° 0 mm 5 mps 763 mmHg 76%
    01:00 +17°C° 0 mm 5 mps 763 mmHg 76%
    02:00 +17°C° 0 mm 5 mps 763 mmHg 77%
    03:00 +17°C° 0 mm 5 mps 763 mmHg 78%
    04:00 +17°C° 0 mm 5 mps 763 mmHg 79%
    05:00 +16°C° 0.1 mm 5 mps 763 mmHg 80%
    06:00 +16°C° 0.1 mm 5 mps 763 mmHg 81%
    07:00 +16°C° 0.1 mm 5 mps 763 mmHg 83%
    08:00 +17°C° 0.1 mm 6 mps 764 mmHg 78%
    09:00 +20°C° 0.1 mm 6 mps 764 mmHg 74%
    10:00 +21°C° 0.1 mm 6 mps 764 mmHg 69%
    11:00 +21°C° 0.1 mm 6 mps 764 mmHg 68%
    12:00 +21°C° 0.1 mm 5 mps 764 mmHg 66%
    13:00 +22°C° 0.1 mm 5 mps 763 mmHg 65%
    14:00 +21°C° 0.1 mm 5 mps 763 mmHg 66%
    15:00 +21°C° 0.1 mm 5 mps 763 mmHg 66%
    16:00 +21°C° 0.1 mm 5 mps 763 mmHg 67%
    17:00 +20°C° 0.1 mm 5 mps 763 mmHg 71%
    18:00 +19°C° 0.1 mm 5 mps 763 mmHg 76%
    19:00 +18°C° 0.1 mm 4 mps 764 mmHg 81%
    20:00 +18°C° 0.1 mm 4 mps 764 mmHg 82%
    21:00 +18°C° 0.1 mm 4 mps 764 mmHg 82%
    22:00 +18°C° 0.1 mm 4 mps 764 mmHg 83%
    23:00 +18°C° 0.1 mm 4 mps 764 mmHg 83%

    24 Octubre, Miércoles

    Tiempo Temperatura Precipitaciones Viento Presión Humedad
    00:00 +18°C° 0.1 mm 4 mps 764 mmHg 84%
    01:00 +18°C° 0.1 mm 4 mps 763 mmHg 84%
    02:00 +17°C° 0.1 mm 4 mps 763 mmHg 84%
    03:00 +17°C° 0.1 mm 4 mps 763 mmHg 84%
    04:00 +16°C° 0.1 mm 5 mps 763 mmHg 85%
    05:00 +17°C° 0.1 mm 4 mps 763 mmHg 85%
    06:00 +17°C° 0.1 mm 4 mps 763 mmHg 86%
    07:00 +17°C° 0.1 mm 4 mps 763 mmHg 87%
    08:00 +17°C° 0.1 mm 5 mps 763 mmHg 81%
    09:00 +20°C° 0.1 mm 5 mps 763 mmHg 75%
    10:00 +21°C° 0.1 mm 5 mps 764 mmHg 69%
    11:00 +22°C° 0.1 mm 5 mps 763 mmHg 67%
    12:00 +22°C° 0.1 mm 6 mps 763 mmHg 65%
    13:00 +23°C° 0.1 mm 6 mps 763 mmHg 63%
    14:00 +22°C° 0.1 mm 6 mps 763 mmHg 65%
    15:00 +22°C° 0.1 mm 6 mps 763 mmHg 66%
    16:00 +21°C° 0.1 mm 6 mps 762 mmHg 68%
    17:00 +21°C° 0 mm 5 mps 762 mmHg 72%
    18:00 +20°C° 0 mm 5 mps 763 mmHg 76%
    19:00 +19°C° 0 mm 4 mps 763 mmHg 81%
    20:00 +18°C° 0 mm 4 mps 763 mmHg 81%
    21:00 +18°C° 0 mm 4 mps 763 mmHg 82%
    22:00 +18°C° 0 mm 4 mps 764 mmHg 82%
    23:00 +18°C° 0 mm 4 mps 764 mmHg 83%

    25 Octubre, Jueves

    Tiempo Temperatura Precipitaciones Viento Presión Humedad
    00:00 +18°C° 0 mm 4 mps 763 mmHg 83%
    01:00 +17°C° 0 mm 4 mps 763 mmHg 84%
    02:00 +17°C° 0 mm 4 mps 763 mmHg 83%
    03:00 +17°C° 0 mm 3 mps 763 mmHg 83%
    04:00 +17°C° 0 mm 3 mps 763 mmHg 83%
    05:00 +17°C° 0 mm 3 mps 763 mmHg 82%
    06:00 +17°C° 0 mm 3 mps 763 mmHg 81%
    07:00 +17°C° 0 mm 3 mps 763 mmHg 80%
    08:00 +18°C° 0 mm 3 mps 764 mmHg 75%
    09:00 +20°C° 0 mm 3 mps 764 mmHg 70%
    10:00 +21°C° 0 mm 2 mps 764 mmHg 65%
    11:00 +23°C° 0 mm 2 mps 764 mmHg 61%
    12:00 +24°C° 0 mm 2 mps 763 mmHg 58%
    13:00 +25°C° 0 mm 2 mps 763 mmHg 55%
    14:00 +25°C° 0 mm 2 mps 763 mmHg 56%
    15:00 +25°C° 0 mm 2 mps 763 mmHg 57%
    16:00 +25°C° 0 mm 2 mps 762 mmHg 59%
    17:00 +23°C° 0 mm 2 mps 763 mmHg 65%
    18:00 +22°C° 0 mm 1 mps 763 mmHg 72%
    19:00 +21°C° 0 mm 1 mps 763 mmHg 79%
    20:00 +21°C° 0 mm 1 mps 763 mmHg 79%
    21:00 +20°C° 0 mm 1 mps 763 mmHg 79%
    22:00 +19°C° 0 mm 2 mps 763 mmHg 80%
    23:00 +19°C° 0 mm 2 mps 763 mmHg 78%

    26 Octubre, Viernes

    Tiempo Temperatura Precipitaciones Viento Presión Humedad
    00:00 +19°C° 0 mm 2 mps 763 mmHg 76%
    01:00 +19°C° 0 mm 2 mps 762 mmHg 74%
    02:00 +19°C° 0 mm 2 mps 762 mmHg 71%
    03:00 +19°C° 0 mm 2 mps 762 mmHg 68%
    04:00 +18°C° 0 mm 3 mps 762 mmHg 66%
    05:00 +18°C° 0 mm 3 mps 761 mmHg 63%
    06:00 +18°C° 0 mm 3 mps 761 mmHg 61%
    07:00 +18°C° 0 mm 3 mps 761 mmHg 59%
    08:00 +20°C° 0 mm 3 mps 761 mmHg 54%
    09:00 +22°C° 0 mm 3 mps 761 mmHg 48%
    10:00 +25°C° 0 mm 3 mps 761 mmHg 43%
    11:00 +26°C° 0 mm 2 mps 761 mmHg 39%
    12:00 +28°C° 0 mm 2 mps 760 mmHg 36%
    13:00 +29°C° 0 mm 1 mps 760 mmHg 33%
    14:00 +29°C° 0 mm 2 mps 759 mmHg 32%
    15:00 +29°C° 0 mm 2 mps 759 mmHg 32%
    16:00 +29°C° 0 mm 2 mps 759 mmHg 31%
    17:00 +27°C° 0 mm 2 mps 759 mmHg 35%
    18:00 +25°C° 0 mm 2 mps 759 mmHg 39%
    19:00 +24°C° 0 mm 3 mps 759 mmHg 42%
    20:00 +22°C° 0 mm 3 mps 759 mmHg 43%
    21:00 +22°C° 0 mm 3 mps 759 mmHg 44%
    22:00 +21°C° 0 mm 3 mps 759 mmHg 45%
    23:00 +21°C° 0 mm 3 mps 759 mmHg 46%
    Mostrar más